AMC-6

Last updated on Sun Dec 21 2025 00:02:52 GMT+0000 (Coordinated Universal Time)

1 26580U 00067A 25354.51716506 .00000112 00000+0 00000+0 0 9996 2 26580 0.0201 352.6640 0002622 267.2911 240.5184 1.00272541 92100
UTC large
Height (km)
Speed (km/s)
/
Latitude / Longitude
Inclination (degrees)
Orbital Period (minutes)
Azimuth
Elevation
Range (km)
Doppler Factor

Next 0 passes for location: London (51.5072 / 0.1276)

Sorry there are no passes over London.